Weather History for Yakima, WA

Change the Weather History Date:

Monday, May 13, 2013

  Actual Average Record
Temperature  
Mean Temperature 59 °F 56 °F  
Max Temperature 74 °F 72 °F 96 °F (1949)
Min Temperature 44 °F 41 °F 28 °F (1964)
Degree Days  
Heating Degree Days 6 9  
Month to date heating degree days 37 139  
Since 1 July heating degree days 4993 5821  
Cooling Degree Days 0 1  
Month to date cooling degree days 51 2  
Year to date cooling degree days 52 3  
Growing Degree Days 12 (Base 50)    
Moisture  
Dew Point 42 °F    
Average Humidity 54    
Maximum Humidity 77    
Minimum Humidity 31    
Precipitation  
Precipitation T in 0.02 in 0.57 in (1996)
Month to date precipitation T 0.23  
Year to date precipitation 1.30 3.32  
Snow  
Snow 0.00 in 0.00 in 0.00 in (2002)
Month to date snowfall 0.0 0.0  
Year to date snowfall 1.1 8.6  
Since 1 July snowfall 15.3 21.6  
Snow Depth 0.00 in    
Sea Level Pressure  
Sea Level Pressure 30.00 in    
Wind  
Wind Speed 8 mph (West)    
Max Wind Speed 29 mph    
Max Gust Speed 31 mph    
Visibility 10 miles    
Events Rain    
T = Trace of Precipitation, MM = Missing Value Source: NWS Daily Summary

Daily Weather History Graph

Daily Weather History Graph

Search for Another Location

Airport:

Trip Planner

Search our weather history database for the weather conditions in past years. The results will help you decide how hot, cold, wet, or windy it might be!

Date:

Astronomy

May. 13, 2013 Rise Set
Actual Time 5:30 AM PDT 8:27 PM PDT
Civil Twilight 4:54 AM PDT 9:03 PM PDT
Nautical Twilight 4:09 AM PDT 9:48 PM PDT
Astronomical Twilight 3:15 AM PDT 10:43 PM PDT
Moon 8:19 AM PDT (5/13) 11:40 PM PDT (5/13)
Length of Visible Light 16h 08m
Length of Day
14h 57m
Waxing Crescent, 13% of the Moon is Illuminated
May 13
Waxing Crescent
May 17
First Quarter
May 24
Full
May 31
Last Quarter
Jun 8
New

Hourly Weather History & Observations

Time (PDT) Temp. Dew Point Humidity Pressure Visibility Wind Dir Wind Speed Gust Speed Precip Events Conditions
12:53 AM 55.0 °F 44.1 °F 67% 29.98 in 10.0 mi WNW 3.5 mph - N/A   Clear
1:53 AM 57.9 °F 46.0 °F 65% 29.98 in 10.0 mi Calm Calm - N/A   Partly Cloudy
2:53 AM 55.9 °F 46.0 °F 69% 29.98 in 10.0 mi Calm Calm - N/A   Mostly Cloudy
3:53 AM 55.0 °F 46.0 °F 72% 29.97 in 10.0 mi Calm Calm - N/A   Mostly Cloudy
4:53 AM 57.0 °F 46.9 °F 69% 29.98 in 10.0 mi WNW 4.6 mph - N/A   Overcast
5:53 AM 54.0 °F 46.0 °F 75% 29.98 in 10.0 mi West 3.5 mph - N/A   Scattered Clouds
6:53 AM 57.0 °F 46.9 °F 69% 29.99 in 10.0 mi Calm Calm - N/A   Mostly Cloudy
7:53 AM 62.1 °F 48.9 °F 62% 29.98 in 10.0 mi Calm Calm - N/A   Mostly Cloudy
8:53 AM 64.9 °F 48.9 °F 56% 29.98 in 10.0 mi Calm Calm - N/A   Overcast
9:53 AM 68.0 °F 45.0 °F 43% 29.97 in 10.0 mi Calm Calm - N/A   Mostly Cloudy
10:53 AM 69.1 °F 46.0 °F 44% 29.97 in 10.0 mi Calm Calm - N/A   Overcast
11:53 AM 62.6 °F 44.6 °F 52% 30.01 in 10.0 mi SW 11.5 mph - N/A Rain Light Rain
1:53 PM 72.0 °F 42.1 °F 34% 29.93 in 10.0 mi SW 16.1 mph 25.3 mph N/A   Mostly Cloudy
2:53 PM 72.0 °F 41.0 °F 33% 29.91 in 10.0 mi West 15.0 mph 21.9 mph N/A   Mostly Cloudy
3:53 PM 73.9 °F 41.0 °F 30% 29.91 in 10.0 mi WSW 13.8 mph 20.7 mph N/A   Mostly Cloudy
4:53 PM 69.8 °F 39.2 °F 33% 29.97 in 10.0 mi West 19.6 mph 27.6 mph N/A   Scattered Clouds
5:53 PM 69.1 °F 39.0 °F 33% 29.98 in 10.0 mi WSW 19.6 mph 31.1 mph N/A   Scattered Clouds
6:46 PM 64.4 °F 39.2 °F 40% 30.00 in 10.0 mi WNW 13.8 mph - N/A   Scattered Clouds
6:53 PM 64.0 °F 37.9 °F 38% 30.00 in 10.0 mi West 15.0 mph 20.7 mph N/A   Scattered Clouds
7:53 PM 59.0 °F 37.0 °F 44% 30.05 in 10.0 mi West 11.5 mph - N/A   Scattered Clouds
8:53 PM 57.0 °F 34.0 °F 42% 30.09 in 10.0 mi WNW 18.4 mph 25.3 mph N/A   Scattered Clouds
9:53 PM 54.0 °F 34.0 °F 47% 30.12 in 10.0 mi SW 4.6 mph - N/A   Clear
10:53 PM 52.0 °F 33.1 °F 49% 30.13 in 10.0 mi NNE 4.6 mph - N/A   Clear
11:53 PM 46.9 °F 30.0 °F 52% 30.14 in 10.0 mi West 5.8 mph - N/A   Clear